GW3133 Weather Reports


time (UTC)temp
C
wind
direction
speed
KPH
gust
KPH
rain 1hr
cm
rain 24hr
cm
rain mn
cm
humidity
%
barometer
mb
20260507070425 14 26 11.3 25.7 0.00 0.00 0.00 93 1011.4
20260507065525 14 24 14.5 25.7 0.00 0.00 0.00 95 1011.2
20260507064625 14 28 12.9 24.1 0.00 0.00 0.00 94 1010.6
20260507063725 14 27 11.3 24.1 0.00 0.00 0.00 94 1010.4
20260507062825 14 26 11.3 24.1 0.00 0.00 0.00 94 1010.6
20260507061925 15 26 8.0 20.9 0.00 0.00 0.00 95 1010.8
20260507061025 15 26 6.4 16.1 0.00 0.00 0.00 95 1011.4
20260507055225 15 33 6.4 14.5 0.00 0.00 0.00 94 1010.7
20260507054325 15 42 8.0 19.3 0.00 0.00 0.00 93 1011.0
20260507053425 16 26 11.3 22.5 0.00 0.00 0.00 92 1011.2
20260507052525 16 23 4.8 19.3 0.00 0.00 0.00 91 1011.4
20260507051625 16 39 1.6 6.4 0.00 0.00 0.00 91 1011.3
20260507050724 17 6 3.2 9.7 0.00 0.00 0.00 89 1011.4
20260507045824 17 352 3.2 9.7 0.00 0.00 0.00 86 1011.5
20260507044925 17 358 1.6 6.4 0.00 0.00 0.00 86 1011.3
20260507044024 18 38 3.2 11.3 0.00 0.00 0.00 87 1011.1
20260507043124 18 17 3.2 11.3 0.00 0.00 0.00 86 1010.9
20260507042225 18 29 8.0 17.7 0.00 0.00 0.00 85 1010.9
20260507041325 18 15 4.8 14.5 0.00 0.00 0.00 89 1010.6
20260507040424 18 298 1.6 8.0 0.00 0.00 0.00 90 1010.6
20260507035524 18 300 3.2 12.9 0.00 0.00 0.00 89 1010.5
20260507034624 19 299 0.0 12.9 0.00 0.00 0.00 88 1010.6
20260507032824 19 0 0.0 0.0 0.00 0.00 0.00 89 1010.1
20260507031924 19 0 0.0 0.0 0.00 0.00 0.00 89 1010.0
20260507031024 19 255 0.0 3.2 0.00 0.00 0.00 89 1010.1
20260507025224 18 258 3.2 6.4 0.00 0.00 0.00 90 1010.0
20260507024324 18 250 4.8 11.3 0.00 0.00 0.00 90 1010.0
20260507023424 18 246 4.8 11.3 0.00 0.00 0.00 91 1010.1
20260507022524 18 274 1.6 3.2 0.00 0.00 0.00 91 1010.4
20260507021624 18 273 3.2 6.4 0.00 0.00 0.00 91 1010.2
20260507020724 18 274 3.2 6.4 0.00 0.00 0.00 91 1010.3
20260507015824 18 0 0.0 0.0 0.00 0.00 0.00 91 1010.3
20260507014924 18 0 0.0 0.0 0.00 0.00 0.00 90 1010.4
20260507014024 18 278 0.0 1.6 0.00 0.00 0.00 91 1010.6
20260507013124 18 278 0.0 1.6 0.00 0.00 0.00 92 1010.8
20260507011324 17 278 0.0 1.6 0.00 0.00 0.00 93 1010.5
20260507010424 18 0 0.0 0.0 0.00 0.00 0.00 91 1010.4
20260507005524 18 0 0.0 0.0 0.00 0.00 0.00 91 1010.3
20260507004624 18 0 0.0 0.0 0.00 0.00 0.00 90 1010.4
20260507003724 18 278 0.0 1.6 0.00 0.00 0.00 89 1010.2
20260507001924 19 278 0.0 1.6 0.00 0.00 0.00 87 1010.3
20260507001024 19 278 0.0 1.6 0.00 0.00 0.00 87 1010.1
20260507000124 19 277 0.0 3.2 0.00 0.00 0.00 86 1010.2
20260506234324 20 277 0.0 4.8 0.00 0.00 0.00 85 1010.0
20260506233423 20 277 1.6 4.8 0.00 0.00 0.00 85 1009.9
20260506232523 20 275 0.0 6.4 0.00 0.00 0.00 84 1009.9
20260506231624 20 268 1.6 4.8 0.00 0.00 0.00 84 1009.9
20260506230724 20 267 3.2 8.0 0.00 0.00 0.00 84 1009.8
20260506224924 20 268 4.8 9.7 0.00 0.00 0.00 83 1009.8
20260506224023 20 270 3.2 9.7 0.00 0.00 0.00 83 1009.8
20260506223123 20 264 3.2 11.3 0.00 0.00 0.00 83 1009.7
20260506222223 20 272 3.2 11.3 0.00 0.00 0.00 83 1009.7
20260506221323 20 265 4.8 11.3 0.00 0.00 0.00 82 1009.8
20260506220423 21 265 4.8 12.9 0.00 0.00 0.00 82 1009.8
20260506215523 21 265 4.8 12.9 0.00 0.00 0.00 81 1009.7
20260506214623 21 268 6.4 14.5 0.00 0.00 0.00 81 1009.6
20260506213723 21 270 6.4 14.5 0.00 0.00 0.00 82 1009.7
20260506212824 21 269 8.0 16.1 0.00 0.00 0.00 82 1009.6
20260506211923 20 267 8.0 17.7 0.00 0.00 0.00 82 1009.4
20260506211024 21 270 6.4 16.1 0.00 0.00 0.00 82 1009.4
20260506210124 20 269 8.0 24.1 0.00 0.00 0.00 82 1009.3
20260506204323 20 267 9.7 29.0 0.00 0.00 0.00 82 1009.2
20260506203423 20 270 9.7 17.7 0.00 0.00 0.00 82 1009.6
20260506202523 20 269 9.7 20.9 0.00 0.00 0.00 83 1009.4
20260506201624 20 268 9.7 30.6 0.00 0.00 0.00 83 1009.2
20260506200723 20 268 9.7 19.3 0.00 0.00 0.00 83 1009.1
20260506195824 20 268 9.7 25.7 0.00 0.00 0.00 84 1009.3
20260506194923 20 264 9.7 27.4 0.00 0.00 0.00 84 1009.5
20260506194023 20 261 9.7 27.4 0.00 0.00 0.00 84 1009.6
20260506193123 20 263 9.7 24.1 0.00 0.00 0.00 84 1009.6
20260506192223 20 264 9.7 24.1 0.00 0.00 0.00 84 1009.8
20260506191323 20 258 11.3 29.0 0.00 0.00 0.00 83 1009.9
20260506190424 20 263 9.7 29.0 0.00 0.00 0.00 83 1010.0
20260506185523 20 259 11.3 32.2 0.00 0.00 0.00 83 1009.9
20260506184623 20 265 8.0 32.2 0.00 0.00 0.00 83 1010.0
20260506183723 19 260 8.0 25.7 0.00 0.00 0.00 84 1010.1
20260506182823 19 262 12.9 27.4 0.00 0.00 0.00 84 1010.3
20260506181923 19 261 12.9 29.0 0.00 0.00 0.00 84 1010.4
20260506181023 19 259 14.5 30.6 0.00 0.00 0.00 84 1010.4
20260506180123 19 258 12.9 25.7 0.00 0.00 0.00 85 1010.6
20260506175223 18 262 11.3 30.6 0.00 0.00 0.00 85 1010.6
20260506174323 18 255 12.9 33.8 0.00 0.00 0.00 86 1010.7
20260506173423 18 255 11.3 30.6 0.00 0.00 0.00 86 1010.8
20260506172523 18 261 11.3 32.2 0.00 0.00 0.00 86 1010.8
20260506171623 18 257 14.5 37.0 0.00 0.00 0.00 86 1010.8
20260506170723 18 257 14.5 37.0 0.00 0.00 0.00 86 1010.8
20260506165823 18 257 14.5 33.8 0.00 0.00 0.00 86 1010.7
20260506164923 18 263 14.5 35.4 0.00 0.00 0.00 86 1010.8
20260506163123 18 257 14.5 33.8 0.00 0.00 0.00 88 1010.9
20260506162223 17 250 16.1 32.2 0.00 0.00 0.00 89 1010.9
20260506161323 17 251 16.1 45.1 0.00 0.00 0.00 88 1011.2
20260506160424 18 246 17.7 37.0 0.00 0.00 0.00 86 1011.2
20260506155523 17 244 16.1 35.4 0.00 0.00 0.00 87 1011.1
20260506154623 17 244 14.5 32.2 0.00 0.00 0.00 88 1011.7
20260506153724 17 244 11.3 25.7 0.00 0.00 0.00 90 1012.0
20260506152823 17 254 8.0 19.3 0.00 0.00 0.00 90 1012.2
20260506151923 17 256 8.0 17.7 0.00 0.00 0.00 90 1012.3
20260506151023 17 254 9.7 20.9 0.00 0.00 0.00 88 1012.3
20260506150123 17 261 9.7 19.3 0.00 0.00 0.00 87 1012.2
20260506145223 17 261 9.7 19.3 0.00 0.00 0.00 85 1012.4
20260506144323 18 256 8.0 17.7 0.00 0.00 0.00 84 1012.3
20260506141623 18 256 11.3 22.5 0.00 0.00 0.00 79 1012.3
20260506140723 18 256 11.3 24.1 0.00 0.00 0.00 78 1012.4
20260506135823 19 256 9.7 29.0 0.00 0.00 0.00 77 1012.4
20260506134923 19 256 11.3 24.1 0.00 0.00 0.00 77 1012.3
20260506134023 19 252 11.3 27.4 0.00 0.00 0.00 76 1012.3
20260506132223 18 240 16.1 40.2 0.00 0.00 0.00 76 1012.1
20260506131323 19 251 14.5 40.2 0.00 0.00 0.00 76 1012.1
20260506125523 18 257 11.3 24.1 0.00 0.00 0.00 77 1012.1
20260506124622 18 249 14.5 30.6 0.00 0.00 0.00 77 1012.3
20260506123722 18 248 16.1 35.4 0.00 0.00 0.00 77 1012.1
20260506122823 18 247 17.7 41.8 0.00 0.00 0.00 76 1012.4
20260506121922 18 243 20.9 41.8 0.00 0.00 0.00 76 1012.3
20260506121022 18 252 16.1 37.0 0.00 0.00 0.00 77 1012.4
20260506115223 18 254 12.9 33.8 0.00 0.00 0.00 77 1012.2
20260506113423 18 246 14.5 29.0 0.00 0.00 0.00 78 1012.0
20260506112523 18 241 14.5 25.7 0.00 0.00 0.00 79 1012.0
20260506111622 18 241 14.5 35.4 0.00 0.00 0.00 79 1011.8
20260506110722 18 241 14.5 33.8 0.00 0.00 0.00 80 1011.8
20260506105822 18 234 17.7 32.2 0.00 0.00 0.00 80 1011.6
20260506104922 18 241 16.1 32.2 0.00 0.00 0.00 80 1011.7
20260506104022 18 242 17.7 33.8 0.00 0.00 0.00 80 1011.8
20260506101322 18 240 16.1 37.0 0.00 0.00 0.00 81 1011.6
20260506100422 18 248 16.1 32.2 0.00 0.00 0.00 81 1011.8
20260506095522 18 253 14.5 32.2 0.00 0.00 0.00 81 1011.9
20260506094622 18 252 16.1 35.4 0.00 0.00 0.00 81 1011.8
20260506092822 18 251 17.7 40.2 0.00 0.00 0.00 81 1011.8
20260506091922 18 249 19.3 41.8 0.00 0.00 0.00 81 1012.0
20260506091022 18 251 16.1 37.0 0.00 0.00 0.00 81 1012.0
20260506090122 18 250 14.5 35.4 0.00 0.00 0.00 81 1011.9
20260506084322 18 247 16.1 41.8 0.00 0.00 0.00 81 1012.0
20260506083422 18 248 16.1 33.8 0.00 0.00 0.00 80 1011.9
20260506082522 18 245 17.7 35.4 0.00 0.00 0.00 80 1011.8
20260506080722 18 243 19.3 41.8 0.00 0.00 0.00 80 1011.9
20260506072222 19 245 19.3 40.2 0.00 0.00 0.00 79 1012.3